Погода в Падинском

Россия / Ставропольский край     44°50′29″N   43°09′52″E
темп.,
°C
ветер,
м/с
пор.,
м/с
влажн.,
%
обл.,
%
осадки,
мм/ч
давл.,
гПа
погр.,
м
17 апреля, сб
сб1700:00+10ссз3492100 0.1 101988
03:00+10св1189100 0.1 101811
06:00+11сз2487100 0.0 1019103
09:00+12ссз71080100 0.0 1020620
12:00+13сз7869100 0.1 1022947
15:00+12сз5671100 0.1 1022803
18:00+10сз3589100 1.4 1023384
21:00+9сз1292100 3.1 1023132
18 апреля, вс
вс1800:00+9с1191100 0.6 102250
03:00+9вюв249399 0.6 1021186
06:00+9в3596100 0.0 1021255
09:00+11юв4684100 0.0 1020652
12:00+13юв5677100 0.1 1019883
15:00+15юв4572100 0.1 1018886
18:00+14юв368291 0.2 1018269
21:00+12юв48927 0.3 1018230
19 апреля, пн
пн1900:00+10ююв2296100 0.1 101826
03:00+10ююв3596100 0.3 1017102
06:00+10ююв3797100 0.0 1017178
09:00+14ююз2484100 0.2 1017227
12:00+18юв2269100 0.3 1016518
15:00+21вюв3452100 0.4 10131160
18:00+16св3686100 1.6 1014157
21:00+14в31191100 1.8 1014262
20 апреля, вт
вт2000:00+14юв61483100 0.0 1012379
03:00+12юв51476100 0.1 1011376
06:00+11вюв61579100 0.0 1008395
09:00+15вюв61167100 0.0 1007434
12:00+19юв71058100 0.0 1007650
15:00+20сз2256100 0.0 1008716
18:00+17ссз4677100 0.0 1008144
21:00+12сз81469100 0.1 1014532
21 апреля, ср
ср2100:00+11ссз5977100 0.1 1016583
03:00+11ссз2686100 0.8 1017423
06:00+11ссв0287100 0.1 1019126
09:00+9сз3581100 0.4 1021463
12:00+9ссз3682100 0.3 1022428
15:00+9ссз4577100 0.4 1022454
18:00+9ссз1184100 0.0 1022140
21:00+9ю1285100 0.0 102349